Tracking 29892 objects as of 21-Nov-2024
HD Live streaming from Space Station
objects crossing your sky now

FALCON HEAVY R/B

Track FALCON HEAVY R/B now!


NORAD ID: 57480
Int'l Code: 2023-108B
Perigee: 7,679.5 km
Apogee: 35,769.5 km
Inclination: 10.0 °
Period: 781.1 minutes
Semi major axis: 28095 km
RCS: Unknown
Launch date: July 29, 2023
Source: United States (US)
Launch site: AIR FORCE EASTERN TEST RANGE (AFETR)

Note: This is a ROCKET BODY
Your satellite tracking list
Your tracking list is empty




NASA's NSSDC Master Catalog

Two Line Element Set (TLE):
1 57480U 23108B   24325.23335345 -.00000090  00000-0  00000-0 0  9992
2 57480  10.0131 154.8989 4999013 277.4235  30.6215  1.84352107  8861
Source of the keplerian elements: AFSPC